This is the latest recevied weather packets stored in our database for station/object SV8FES. If no packets are shown the sender has not sent any weather packets the latest 1 day(s).
| Time | Temp. | Humidity | Pressure | Rain* | Wind** | Luminosity | Snow |
|---|---|---|---|---|---|---|---|
| 1778087645 | 21.11° C | 43% | 1015.5 hPa | 0 mm | - | 0 W/m² | - |
| 1778087223 | 21.11° C | 41% | 1015.5 hPa | 0 mm | - | 5 W/m² | - |
| 1778087165 | 21.67° C | 40% | 1015.5 hPa | 0 mm | - | 5 W/m² | - |
| 1778087044 | 21.67° C | 40% | 1015.6 hPa | 0 mm | - | 5 W/m² | - |
| 1778086864 | 21.67° C | 40% | 1015.5 hPa | 0 mm | - | 9 W/m² | - |
| 1778086684 | 21.67° C | 41% | 1015.6 hPa | 0 mm | - | 14 W/m² | - |
| 1778086083 | 22.22° C | 44% | 1015.6 hPa | 0 mm | - | 21 W/m² | - |
| 1778085965 | 22.22° C | 44% | 1015.6 hPa | 0 mm | - | 26 W/m² | - |
| 1778085665 | 22.22° C | 46% | 1015.7 hPa | 0 mm | - | 44 W/m² | - |
| 1778085484 | 22.22° C | 45% | 1015.6 hPa | 0 mm | - | 53 W/m² | - |
| 1778085179 | 21.67° C | 46% | 1015.8 hPa | 0 mm | - | 67 W/m² | - |
| 1778085118 | 22.22° C | 46% | 1015.7 hPa | 0 mm | - | 70 W/m² | - |
| 1778084930 | 22.22° C | 46% | 1015.7 hPa | 0 mm | - | 77 W/m² | - |
| 1778084869 | 22.22° C | 46% | 1015.7 hPa | 0 mm | - | 79 W/m² | - |
| 1778084627 | 22.22° C | 47% | 1015.7 hPa | 0 mm | - | 84 W/m² | - |
| 1778084506 | 22.22° C | 47% | 1015.7 hPa | 0 mm | - | 97 W/m² | - |
| 1778084383 | 22.22° C | 46% | 1015.8 hPa | 0 mm | - | 93 W/m² | - |
| 1778084322 | 22.22° C | 46% | 1015.7 hPa | 0 mm | - | 104 W/m² | - |
| 1778084080 | 22.22° C | 48% | 1015.8 hPa | 0 mm | - | 118 W/m² | - |
| 1778084018 | 22.22° C | 49% | 1015.7 hPa | 0 mm | - | 120 W/m² | - |
| 1778083536 | 22.22° C | 47% | 1015.8 hPa | 0 mm | - | 144 W/m² | - |
| 1778083474 | 22.22° C | 47% | 1015.8 hPa | 0 mm | - | 151 W/m² | - |
| 1778083353 | 22.22° C | 47% | 1015.8 hPa | 0 mm | - | 160 W/m² | - |
| 1778083232 | 22.22° C | 47% | 1015.8 hPa | 0 mm | - | 171 W/m² | - |
| 1778082991 | 22.22° C | 48% | 1015.8 hPa | 0 mm | - | 193 W/m² | - |
* Rain latest hour (hover to see other rain measurements)
** Current wind speed in m/s (hover to see current wind gust speed)